{"data":{"norad_id":67184,"intl_designator":"2025-303X","name":"STARLINK-35910","alt_names":[],"object_type":"PAYLOAD","status":"ACTIVE","operator":null,"country":"US","launch_date":"2025-12-17","launch_site_code":"AFETR","launch_vehicle":null,"mission":null,"orbit_class":"UNKNOWN","rcs_meters":null,"size_class":null,"mass_kg":null,"dimensions":null,"purposes":["comms"],"wikipedia_slug":null,"has_3d_model":false,"image_url":null,"decayed_at":null,"tle_current":{"epoch":"2026-05-24T22:55:09.535008Z","epoch_age_seconds":85854,"freshness":"FRESH","line1":"1 67184U 25303X   26144.95497147  .00012182  00000+0  45129-3 0  9999","line2":"2 67184  43.0044 239.5951 0001095 292.2758  67.7978 15.27592516 24404","mean_motion":15.27592516,"eccentricity":0.0001095,"inclination_deg":43.0044,"raan_deg":239.5951,"arg_perigee_deg":292.2758,"mean_anomaly_deg":67.7978,"bstar":0.00045129,"rev_number":2440,"period_min":94.265976359366,"perigee_km":482.26032311516,"apogee_km":483.7629146627,"semimajor_km":6861.1486188889,"source":"CELESTRAK","updated_at":"2026-05-25T13:38:21.484263Z"}}}